Location: El Águila
(10.4167°N, 66.7167°W)
Time: 04:30:47
(UTC+00:00)

Cosmos 2297 Rocket - Pass Details

Date: 02 October 2022
Orbit: 839 x 844 km, 71.0° (Epoch: 26 November)

Event Time Altitude Azimuth Distance (km) Brightness Sun altitude
Rises 22:23:51 0° 348° (NNW) 3,390 5.5 -2.6°
Reaches altitude 10° 22:26:19 10° 351° (N) 2,455 4.7 -3.2°
Maximum altitude 22:31:55 68° 74° (ENE) 904 2.2 -4.6°
Drops below altitude 10° 22:37:31 10° 156° (SSE) 2,454 4.4 -6.0°
Sets 22:39:58 0° 159° (SSE) 3,388 5.1 -6.6°
